Terminal Aerodrome Forecast
Issued by NWS

Home | Current Version | Previous Version | Text Only | Print | Product List | Glossary On
Versions: 1 2 3 4 5 6 7 8 9 10 11 12 13 14 15 16 17 18 19 20 21 22 23 24 25 26 27 28 29 30 31 32 33 34 35 36 37 38 39
000
FTAK31 PANC 150933 AAB
TAFATK
TAF AMD
PATK 150933Z 1510/1606 VRB03KT 2SM BR SCT001 OVC070
      TEMPO 1510/1514 VRB03KT 1SM BR BKN001
     FM151800 36004KT 5SM -SHRA SCT003 OVC045=

USA.gov is the U.S. government's official web portal to all federal, state and local government web resources and services.